This is the latest recevied weather packets stored in our database for station/object K0QJ. If no packets are shown the sender has not sent any weather packets the latest 10 day(s).
| Time | Temp. | Humidity | Pressure | Rain* | Wind** | Luminosity | Snow |
|---|---|---|---|---|---|---|---|
| 1778097277 | 15.56° C | 37% | 1017.3 hPa | 0 mm | - | 733 W/m² | - |
| 1778096973 | 15° C | 37% | 1017.4 hPa | 0 mm | - | 736 W/m² | - |
| 1778096671 | 15.56° C | 36% | 1017.4 hPa | 0 mm | - | 695 W/m² | - |
| 1778096368 | 15° C | 35% | 1017.4 hPa | 0 mm | - | 639 W/m² | - |
| 1778096065 | 16.11° C | 35% | 1017.3 hPa | 0 mm | - | 634 W/m² | - |
| 1778095761 | 16.11° C | 37% | 1017.6 hPa | 0 mm | - | 649 W/m² | - |
| 1778095458 | 15.56° C | 40% | 1017.3 hPa | 0 mm | - | 663 W/m² | - |
| 1778095155 | 15° C | 38% | 1017.1 hPa | 0 mm | - | 659 W/m² | - |
| 1778094851 | 15° C | 38% | 1017.3 hPa | 0 mm | - | 653 W/m² | - |
| 1778094548 | 14.44° C | 38% | 1017.3 hPa | 0 mm | - | 651 W/m² | - |
| 1778094245 | 15° C | 39% | 1017.5 hPa | 0 mm | - | 688 W/m² | - |
| 1778093942 | 15° C | 40% | 1017.5 hPa | 0 mm | - | 716 W/m² | - |
| 1778093639 | 14.44° C | 37% | 1017.7 hPa | 0 mm | - | 748 W/m² | - |
| 1778093336 | 14.44° C | 37% | 1017.8 hPa | 0 mm | - | 726 W/m² | - |
| 1778093033 | 14.44° C | 36% | 1017.7 hPa | 0 mm | - | 735 W/m² | - |
| 1778092730 | 15° C | 38% | 1017.6 hPa | 0 mm | - | 753 W/m² | - |
| 1778092425 | 13.89° C | 38% | 1017.9 hPa | 0 mm | - | 775 W/m² | - |
| 1778092123 | 13.89° C | 37% | 1017.7 hPa | 0 mm | - | 617 W/m² | - |
| 1778091820 | 13.89° C | 39% | 1017.8 hPa | 0 mm | - | 895 W/m² | - |
| 1778091517 | 13.33° C | 39% | 1018.1 hPa | 0 mm | - | 425 W/m² | - |
| 1778091215 | 13.33° C | 41% | 1018.2 hPa | 0 mm | - | 390 W/m² | - |
| 1778090912 | 13.33° C | 39% | 1017.9 hPa | 0 mm | - | 297 W/m² | - |
| 1778090608 | 12.78° C | 40% | 1018.1 hPa | 0 mm | - | 236 W/m² | - |
| 1778090304 | 13.33° C | 40% | 1017.9 hPa | 0 mm | - | 235 W/m² | - |
| 1778090001 | 13.33° C | 39% | 1017.9 hPa | 0 mm | - | 237 W/m² | - |
* Rain latest hour (hover to see other rain measurements)
** Current wind speed in m/s (hover to see current wind gust speed)